User: anonymous   Login
Location: Bílinka
(49.3579°N, 14.3767°E)
Time: 14:47:32
(UTC+00:00)
Language:

Cosmos 1833 Rocket - Orbit

View from above orbital plane
View from above orbital plane
View from above satellite
View from above satellite

Ground track
Ground track

The orbit data is extracted from the following two-line orbital elements,

1 17590U 87027B   24054.12969360 -.00000153  00000-0 -52450-4 0  9998
2 17590  71.0029  47.3063 0005598 205.2282 154.8569 14.16946345909991
Epoch (UTC): 23 February 2024 03:06:45
Eccentricity: 0.0005598
inclination: 71.0029°
perigee height: 831 km
apogee height: 840 km
right ascension of ascending node: 47.3063°
argument of perigee: 205.2282°
revolutions per day: 14.16946345
mean anomaly at epoch: 154.8569°
orbit number at epoch: 90999

The dashed part of the orbit path shows where the satellite is in the earth's shadow,  

DLR